1998-067NY (43550 NORAD) Tracking and Keplerian Element Data

This shows tracking and keplerian element data for the satellite.

Feedback or suggestion? Click here.




ElementValue
Catalog43550
Name1998-067NY
Epoch Orbit2016
Epoch Day323.52502234
Epoch Year2018
RAAN322.512
Inclination51.6383
Eccentricity0.000583
Argument of Perigee75.2784
Mean Anonmoly284.8854
Mean Motion15.57922566
Decay Rate0.00015708
L11 43550U 98067NY 18323.52502234 .00015708 00000-0 21227-3 0 9995
L22 43550 51.6383 322.5120 0005830 75.2784 284.8854 15.57922566 20165

Live tracking and technical data element details for 1998-067NY (NORAD 43550). 1998-067NY can be tracked NOW for your location showing map with azimuth and elevation plus other details from your city location.

Track the satellite on the map from your city or location and see movement details for azimuth, elevation, latitude, longitude, range, height, and movement on the map or in text.







IsCatalogInMostPopularTable: catalog: 43550, numindb: 41
Update: records affected: 1



GetName: 43550 1998-067NY

Hit Count: updated at: Tue, 20 Nov 2018 11:24:19 GMT